When you browse on this site, cookies collect data to enhance your experience and personalize the content and advertising you see.
Visit our Privacy Policy to learn more. By continuing to use the site, you agree to this use of cookies and data.
  • In Hungary
  • List of Countries
  • For 7 days
  • Water Temperature
  • Weather Map
  • News
  • Weather Widgets
  • user-avatar
    Login

    Hourly Weather Krym

    Today, 21 October, Monday

    Time Temperature Precipitation Wind Pressure Humidity
    00:00 +13°C° 0 mm 3 mps 764 mmHg 74%
    01:00 +13°C° 0 mm 3 mps 764 mmHg 75%
    02:00 +13°C° 0 mm 3 mps 764 mmHg 76%
    03:00 +12°C° 0 mm 3 mps 764 mmHg 77%
    04:00 +12°C° 0 mm 3 mps 764 mmHg 77%
    05:00 +12°C° 0 mm 3 mps 764 mmHg 76%
    06:00 +11°C° 0 mm 3 mps 764 mmHg 76%
    07:00 +12°C° 0 mm 3 mps 765 mmHg 73%
    08:00 +13°C° 0 mm 4 mps 765 mmHg 70%
    09:00 +14°C° 0 mm 4 mps 765 mmHg 66%
    10:00 +17°C° 0 mm 4 mps 765 mmHg 59%
    11:00 +19°C° 0 mm 4 mps 765 mmHg 52%
    12:00 +20°C° 0 mm 4 mps 765 mmHg 45%
    13:00 +21°C° 0 mm 4 mps 765 mmHg 43%
    14:00 +21°C° 0 mm 4 mps 764 mmHg 41%
    15:00 +22°C° 0 mm 3 mps 764 mmHg 40%
    16:00 +20°C° 0 mm 3 mps 764 mmHg 44%
    17:00 +19°C° 0 mm 3 mps 764 mmHg 48%
    18:00 +18°C° 0 mm 3 mps 764 mmHg 53%
    19:00 +17°C° 0 mm 3 mps 764 mmHg 54%
    20:00 +16°C° 0 mm 3 mps 764 mmHg 56%
    21:00 +16°C° 0 mm 3 mps 764 mmHg 57%
    22:00 +14°C° 0 mm 3 mps 764 mmHg 60%
    23:00 +14°C° 0 mm 2 mps 764 mmHg 62%

    Tomorrow, 22 October, Tuesday

    Time Temperature Precipitation Wind Pressure Humidity
    00:00 +14°C° 0 mm 2 mps 764 mmHg 64%
    01:00 +14°C° 0 mm 2 mps 764 mmHg 66%
    02:00 +13°C° 0 mm 2 mps 764 mmHg 67%
    03:00 +13°C° 0 mm 1 mps 764 mmHg 69%
    04:00 +13°C° 0 mm 1 mps 764 mmHg 70%
    05:00 +12°C° 0 mm 1 mps 764 mmHg 71%
    06:00 +12°C° 0 mm 1 mps 764 mmHg 72%
    07:00 +13°C° 0 mm 1 mps 764 mmHg 68%
    08:00 +14°C° 0 mm 2 mps 764 mmHg 64%
    09:00 +15°C° 0 mm 2 mps 764 mmHg 60%
    10:00 +16°C° 0 mm 2 mps 764 mmHg 54%
    11:00 +18°C° 0 mm 2 mps 764 mmHg 49%
    12:00 +19°C° 0 mm 2 mps 764 mmHg 43%
    13:00 +21°C° 0 mm 1 mps 763 mmHg 41%
    14:00 +21°C° 0 mm 1 mps 763 mmHg 39%
    15:00 +22°C° 0 mm 1 mps 763 mmHg 37%
    16:00 +21°C° 0 mm 1 mps 763 mmHg 41%
    17:00 +20°C° 0 mm 1 mps 763 mmHg 44%
    18:00 +18°C° 0 mm 1 mps 763 mmHg 47%
    19:00 +18°C° 0 mm 1 mps 763 mmHg 49%
    20:00 +16°C° 0 mm 1 mps 763 mmHg 51%
    21:00 +16°C° 0 mm 1 mps 763 mmHg 52%
    22:00 +15°C° 0 mm 1 mps 763 mmHg 54%
    23:00 +15°C° 0 mm 1 mps 763 mmHg 55%

    Day after tomorrow, 23 October, Wednesday

    Time Temperature Precipitation Wind Pressure Humidity
    00:00 +14°C° 0 mm 1 mps 763 mmHg 57%
    01:00 +14°C° 0 mm 1 mps 763 mmHg 58%
    02:00 +14°C° 0 mm 1 mps 763 mmHg 59%
    03:00 +12°C° 0 mm 0 mps 763 mmHg 60%
    04:00 +12°C° 0 mm 0 mps 763 mmHg 61%
    05:00 +12°C° 0 mm 0 mps 763 mmHg 61%
    06:00 +13°C° 0 mm 1 mps 763 mmHg 62%
    07:00 +14°C° 0 mm 1 mps 763 mmHg 59%
    08:00 +15°C° 0 mm 1 mps 763 mmHg 57%
    09:00 +16°C° 0 mm 1 mps 763 mmHg 54%
    10:00 +18°C° 0 mm 1 mps 763 mmHg 50%
    11:00 +18°C° 0 mm 2 mps 763 mmHg 46%
    12:00 +20°C° 0 mm 2 mps 763 mmHg 42%
    13:00 +20°C° 0 mm 2 mps 763 mmHg 40%
    14:00 +21°C° 0 mm 2 mps 763 mmHg 39%
    15:00 +22°C° 0 mm 1 mps 763 mmHg 38%
    16:00 +21°C° 0 mm 1 mps 763 mmHg 41%
    17:00 +19°C° 0 mm 2 mps 762 mmHg 44%
    18:00 +18°C° 0 mm 2 mps 762 mmHg 47%
    19:00 +17°C° 0 mm 2 mps 763 mmHg 49%
    20:00 +16°C° 0 mm 2 mps 763 mmHg 50%
    21:00 +16°C° 0 mm 2 mps 763 mmHg 52%
    22:00 +15°C° 0 mm 2 mps 763 mmHg 53%
    23:00 +15°C° 0 mm 2 mps 763 mmHg 55%

    24 October, Thursday

    Time Temperature Precipitation Wind Pressure Humidity
    00:00 +14°C° 0 mm 2 mps 763 mmHg 56%
    01:00 +14°C° 0 mm 1 mps 762 mmHg 57%
    02:00 +14°C° 0 mm 1 mps 762 mmHg 58%
    03:00 +13°C° 0 mm 1 mps 762 mmHg 59%
    04:00 +13°C° 0 mm 1 mps 762 mmHg 60%
    05:00 +13°C° 0 mm 1 mps 762 mmHg 60%
    06:00 +12°C° 0 mm 1 mps 762 mmHg 61%
    07:00 +13°C° 0 mm 2 mps 763 mmHg 58%
    08:00 +14°C° 0 mm 2 mps 763 mmHg 55%
    09:00 +15°C° 0 mm 2 mps 763 mmHg 52%
    10:00 +16°C° 0 mm 2 mps 763 mmHg 46%
    11:00 +18°C° 0 mm 2 mps 762 mmHg 41%
    12:00 +19°C° 0 mm 2 mps 762 mmHg 36%
    13:00 +20°C° 0 mm 2 mps 762 mmHg 34%
    14:00 +21°C° 0 mm 2 mps 762 mmHg 33%
    15:00 +21°C° 0 mm 2 mps 761 mmHg 32%
    16:00 +20°C° 0 mm 2 mps 761 mmHg 35%
    17:00 +19°C° 0 mm 2 mps 761 mmHg 39%
    18:00 +17°C° 0 mm 2 mps 761 mmHg 42%
    19:00 +17°C° 0 mm 2 mps 761 mmHg 45%
    20:00 +16°C° 0 mm 2 mps 761 mmHg 47%
    21:00 +15°C° 0 mm 2 mps 761 mmHg 50%
    22:00 +15°C° 0 mm 2 mps 761 mmHg 52%
    23:00 +14°C° 0 mm 2 mps 761 mmHg 54%

    25 October, Friday

    Time Temperature Precipitation Wind Pressure Humidity
    00:00 +14°C° 0 mm 2 mps 761 mmHg 56%
    01:00 +13°C° 0 mm 2 mps 761 mmHg 57%
    02:00 +13°C° 0 mm 2 mps 761 mmHg 58%
    03:00 +12°C° 0 mm 2 mps 761 mmHg 59%
    04:00 +12°C° 0 mm 2 mps 761 mmHg 61%
    05:00 +12°C° 0 mm 2 mps 761 mmHg 62%
    06:00 +10°C° 0 mm 2 mps 761 mmHg 63%
    07:00 +12°C° 0 mm 2 mps 761 mmHg 60%
    08:00 +13°C° 0 mm 2 mps 761 mmHg 57%
    09:00 +14°C° 0 mm 2 mps 761 mmHg 54%
    10:00 +16°C° 0 mm 2 mps 761 mmHg 48%
    11:00 +17°C° 0 mm 3 mps 761 mmHg 43%
    12:00 +19°C° 0 mm 3 mps 761 mmHg 38%
    13:00 +19°C° 0 mm 3 mps 761 mmHg 36%
    14:00 +20°C° 0 mm 3 mps 761 mmHg 35%
    15:00 +20°C° 0 mm 3 mps 760 mmHg 34%
    16:00 +19°C° 0 mm 3 mps 760 mmHg 37%
    17:00 +18°C° 0 mm 2 mps 760 mmHg 41%
    18:00 +16°C° 0 mm 2 mps 761 mmHg 45%
    19:00 +16°C° 0 mm 2 mps 761 mmHg 47%
    20:00 +15°C° 0 mm 2 mps 761 mmHg 49%
    21:00 +14°C° 0 mm 2 mps 761 mmHg 51%
    22:00 +14°C° 0 mm 2 mps 761 mmHg 52%
    23:00 +13°C° 0 mm 2 mps 761 mmHg 53%

    26 October, Saturday

    Time Temperature Precipitation Wind Pressure Humidity
    00:00 +13°C° 0 mm 2 mps 761 mmHg 55%
    01:00 +12°C° 0 mm 2 mps 761 mmHg 55%
    02:00 +11°C° 0 mm 3 mps 761 mmHg 56%
    03:00 +11°C° 0 mm 3 mps 761 mmHg 57%
    04:00 +10°C° 0 mm 3 mps 761 mmHg 59%
    05:00 +10°C° 0 mm 3 mps 761 mmHg 61%
    06:00 +10°C° 0 mm 3 mps 762 mmHg 63%
    07:00 +10°C° 0 mm 3 mps 762 mmHg 61%
    08:00 +11°C° 0 mm 3 mps 762 mmHg 59%
    09:00 +12°C° 0 mm 3 mps 762 mmHg 57%
    10:00 +14°C° 0 mm 4 mps 762 mmHg 51%
    11:00 +17°C° 0 mm 4 mps 762 mmHg 46%
    12:00 +19°C° 0 mm 4 mps 762 mmHg 40%
    13:00 +19°C° 0 mm 4 mps 762 mmHg 38%
    14:00 +19°C° 0 mm 4 mps 762 mmHg 37%
    15:00 +20°C° 0 mm 4 mps 761 mmHg 35%
    16:00 +19°C° 0 mm 3 mps 761 mmHg 40%
    17:00 +17°C° 0 mm 3 mps 761 mmHg 44%
    18:00 +16°C° 0 mm 3 mps 761 mmHg 48%
    19:00 +16°C° 0 mm 3 mps 761 mmHg 50%
    20:00 +16°C° 0 mm 3 mps 762 mmHg 51%
    21:00 +16°C° 0 mm 3 mps 762 mmHg 52%
    22:00 +16°C° 0 mm 3 mps 762 mmHg 53%
    23:00 +16°C° 0 mm 3 mps 761 mmHg 53%

    27 October, Sunday

    Time Temperature Precipitation Wind Pressure Humidity
    00:00 +16°C° 0 mm 2 mps 761 mmHg 54%
    01:00 +16°C° 0 mm 2 mps 761 mmHg 57%
    02:00 +15°C° 0 mm 2 mps 761 mmHg 61%
    03:00 +14°C° 0 mm 2 mps 761 mmHg 65%
    04:00 +14°C° 0 mm 2 mps 761 mmHg 66%
    05:00 +14°C° 0 mm 2 mps 761 mmHg 67%
    06:00 +14°C° 0 mm 2 mps 761 mmHg 68%
    07:00 +14°C° 0 mm 2 mps 761 mmHg 64%
    08:00 +14°C° 0 mm 3 mps 761 mmHg 60%
    09:00 +16°C° 0 mm 3 mps 761 mmHg 56%
    10:00 +17°C° 0 mm 3 mps 761 mmHg 52%
    11:00 +19°C° 0 mm 3 mps 761 mmHg 48%
    12:00 +20°C° 0 mm 3 mps 761 mmHg 43%
    13:00 +20°C° 0 mm 2 mps 760 mmHg 44%
    14:00 +21°C° 0 mm 2 mps 760 mmHg 44%
    15:00 +21°C° 0 mm 2 mps 760 mmHg 44%
    16:00 +21°C° 0 mm 1 mps 760 mmHg 47%
    17:00 +20°C° 0 mm 1 mps 759 mmHg 51%
    18:00 +18°C° 0 mm 1 mps 759 mmHg 55%
    19:00 +18°C° 0 mm 1 mps 759 mmHg 57%
    20:00 +16°C° 0 mm 1 mps 759 mmHg 58%
    21:00 +16°C° 0 mm 1 mps 759 mmHg 60%
    22:00 +15°C° 0 mm 1 mps 759 mmHg 61%
    23:00 +15°C° 0 mm 1 mps 759 mmHg 62%
    Show more